Time,TemperatureF,DewpointF,PressureIn,WindDirection,WindDirectionDegrees,WindSpeedMPH,WindSpeedGustMPH,Humidity,HourlyPrecipIn,Conditions,Clouds,dailyrainin,SoftwareType,DateUTC
2013-03-25 07:17:00,23.5,20.2,29.97,North,9,7.0,7.0,87,0.00,,,0.00,Wunderground v.1.15,2013-03-25 12:17:00,
2013-03-25 07:23:00,23.6,20.3,29.97,NE,50,6.0,9.0,87,0.00,,,0.00,Wunderground v.1.15,2013-03-25 12:23:00,
2013-03-25 07:28:00,23.7,20.4,29.97,NNE,30,6.0,7.0,87,0.00,,,0.00,Wunderground v.1.15,2013-03-25 12:28:00,
2013-03-25 07:34:00,23.9,20.6,29.97,NE,41,6.0,6.0,87,0.00,,,0.00,Wunderground v.1.15,2013-03-25 12:34:00,
2013-03-25 07:40:00,24.0,20.4,29.98,NE,46,7.0,7.0,86,0.00,,,0.00,Wunderground v.1.15,2013-03-25 12:40:00,
2013-03-25 07:45:00,24.2,20.6,29.98,North,351,6.0,6.0,86,0.00,,,0.00,Wunderground v.1.15,2013-03-25 12:45:00,
2013-03-25 07:51:00,24.5,20.9,29.98,NNE,27,5.0,9.0,86,0.00,,,0.00,Wunderground v.1.15,2013-03-25 12:51:00,
2013-03-25 07:57:00,24.8,21.2,29.98,NE,43,6.0,6.0,86,0.00,,,0.00,Wunderground v.1.15,2013-03-25 12:57:00,
2013-03-25 08:02:00,25.0,21.4,29.98,NNE,30,6.0,10.0,86,0.00,,,0.00,Wunderground v.1.15,2013-03-25 13:02:00,
2013-03-25 08:08:00,25.3,21.4,29.98,NNE,29,7.0,10.0,85,0.00,,,0.00,Wunderground v.1.15,2013-03-25 13:08:00,
2013-03-25 08:14:00,25.6,21.7,29.99,NNE,31,7.0,15.0,85,0.00,,,0.00,Wunderground v.1.15,2013-03-25 13:14:00,
2013-03-25 08:19:00,25.8,21.9,29.99,NNE,31,7.0,15.0,85,0.00,,,0.00,Wunderground v.1.15,2013-03-25 13:19:00,
2013-03-25 08:24:00,26.0,22.1,29.99,NNE,27,8.0,11.0,85,0.00,,,0.00,Wunderground v.1.15,2013-03-25 13:24:00,
2013-03-25 08:30:00,26.2,22.3,29.99,NE,38,8.0,8.0,85,0.00,,,0.00,Wunderground v.1.15,2013-03-25 13:30:00,
2013-03-25 08:36:00,26.4,22.2,29.99,NNE,26,7.0,13.0,84,0.00,,,0.00,Wunderground v.1.15,2013-03-25 13:36:00,
2013-03-25 08:41:00,26.6,22.4,29.99,NE,55,7.0,13.0,84,0.00,,,0.00,Wunderground v.1.15,2013-03-25 13:41:00,
2013-03-25 08:47:00,26.9,22.7,29.99,NE,40,7.0,13.0,84,0.00,,,0.00,Wunderground v.1.15,2013-03-25 13:47:00,
2013-03-25 08:53:00,27.2,22.7,29.99,NNE,30,8.0,13.0,83,0.00,,,0.00,Wunderground v.1.15,2013-03-25 13:53:00,
2013-03-25 08:59:00,27.5,22.7,29.99,NE,39,9.0,14.0,82,0.00,,,0.00,Wunderground v.1.15,2013-03-25 13:59:00,
2013-03-25 09:05:00,27.9,23.1,29.99,NNE,30,9.0,12.0,82,0.00,,,0.00,Wunderground v.1.15,2013-03-25 14:05:00,
2013-03-25 09:10:00,28.3,23.2,29.99,NE,34,10.0,11.0,81,0.00,,,0.00,Wunderground v.1.15,2013-03-25 14:10:00,
2013-03-25 09:16:00,28.5,23.1,29.99,NNE,32,12.0,15.0,80,0.00,,,0.00,Wunderground v.1.15,2013-03-25 14:16:00,
2013-03-25 09:21:00,28.8,23.4,29.99,NNE,28,12.0,18.0,80,0.00,,,0.00,Wunderground v.1.15,2013-03-25 14:21:00,
2013-03-25 09:27:00,29.0,23.3,29.99,NE,50,12.0,18.0,79,0.00,,,0.00,Wunderground v.1.15,2013-03-25 14:27:00,
2013-03-25 09:32:00,29.1,23.4,29.99,NNE,30,12.0,15.0,79,0.00,,,0.00,Wunderground v.1.15,2013-03-25 14:32:00,
2013-03-25 09:38:00,29.3,23.6,30.00,NNE,32,12.0,16.0,79,0.00,,,0.00,Wunderground v.1.15,2013-03-25 14:38:00,
2013-03-25 09:44:00,29.3,23.6,30.00,NE,38,13.0,20.0,79,0.00,,,0.00,Wunderground v.1.15,2013-03-25 14:44:00,
2013-03-25 09:50:00,29.6,23.6,30.00,ENE,59,14.0,15.0,78,0.00,,,0.00,Wunderground v.1.15,2013-03-25 14:50:00,
2013-03-25 09:55:00,29.7,23.7,30.00,NE,46,15.0,21.0,78,0.00,,,0.00,Wunderground v.1.15,2013-03-25 14:55:00,
2013-03-25 10:00:00,29.7,23.7,30.00,NE,38,13.0,16.0,78,0.00,,,0.00,Wunderground v.1.15,2013-03-25 15:00:00,
2013-03-25 10:06:00,29.6,23.6,30.00,NNE,27,13.0,21.0,78,0.00,,,0.00,Wunderground v.1.15,2013-03-25 15:06:00,
2013-03-25 10:11:00,29.6,23.9,30.01,NE,40,13.0,14.0,79,0.00,,,0.00,Wunderground v.1.15,2013-03-25 15:11:00,
2013-03-25 10:17:00,29.7,24.0,30.01,NE,37,13.0,20.0,79,0.00,,,0.00,Wunderground v.1.15,2013-03-25 15:17:00,
2013-03-25 10:22:00,29.6,23.9,30.00,NNE,15,16.0,17.0,79,0.00,,,0.00,Wunderground v.1.15,2013-03-25 15:22:00,
2013-03-25 10:28:00,29.7,24.0,30.01,NE,43,14.0,18.0,79,0.00,,,0.00,Wunderground v.1.15,2013-03-25 15:28:00,
2013-03-25 10:34:00,29.8,23.5,30.01,North,11,14.0,21.0,77,0.00,,,0.00,Wunderground v.1.15,2013-03-25 15:34:00,
2013-03-25 10:40:00,29.9,23.6,30.01,NNE,26,15.0,15.0,77,0.00,,,0.00,Wunderground v.1.15,2013-03-25 15:40:00,
2013-03-25 10:46:00,30.2,23.9,30.01,NNE,32,14.0,20.0,77,0.00,,,0.00,Wunderground v.1.15,2013-03-25 15:46:00,
2013-03-25 10:52:00,30.7,24.0,30.01,NE,40,11.0,20.0,76,0.00,,,0.00,Wunderground v.1.15,2013-03-25 15:52:00,
2013-03-25 10:58:00,31.1,24.4,30.01,NNE,20,11.0,20.0,76,0.00,,,0.00,Wunderground v.1.15,2013-03-25 15:58:00,
2013-03-25 11:03:00,31.3,24.0,30.01,NNE,32,12.0,16.0,74,0.00,,,0.00,Wunderground v.1.15,2013-03-25 16:03:00,
2013-03-25 11:09:00,31.7,24.4,30.01,NE,42,11.0,16.0,74,0.00,,,0.00,Wunderground v.1.15,2013-03-25 16:09:00,
2013-03-25 11:15:00,32.1,24.1,30.01,NNE,21,11.0,18.0,72,0.00,,,0.00,Wunderground v.1.15,2013-03-25 16:15:00,
2013-03-25 11:20:00,32.1,24.1,30.01,NNE,27,13.0,15.0,72,0.00,,,0.00,Wunderground v.1.15,2013-03-25 16:20:00,
2013-03-25 11:25:00,32.5,24.8,30.01,NNE,19,12.0,15.0,73,0.00,,,0.00,Wunderground v.1.15,2013-03-25 16:25:00,
2013-03-25 11:31:00,32.7,24.3,30.01,NE,42,9.0,15.0,71,0.00,,,0.00,Wunderground v.1.15,2013-03-25 16:31:00,
2013-03-25 11:37:00,32.6,24.2,30.01,NNW,342,10.0,30.0,71,0.00,,,0.00,Wunderground v.1.15,2013-03-25 16:37:00,
2013-03-25 11:43:00,33.1,25.1,30.02,North,5,10.0,30.0,72,0.00,,,0.00,Wunderground v.1.15,2013-03-25 16:43:00,
2013-03-25 11:48:00,33.1,24.7,30.02,NNE,19,11.0,30.0,71,0.00,,,0.00,Wunderground v.1.15,2013-03-25 16:48:00,
2013-03-25 11:53:00,33.2,24.8,30.01,NNE,22,11.0,30.0,71,0.00,,,0.00,Wunderground v.1.15,2013-03-25 16:53:00,
2013-03-25 11:59:00,33.3,24.9,30.02,NE,43,10.0,30.0,71,0.00,,,0.00,Wunderground v.1.15,2013-03-25 16:59:00,
2013-03-25 12:05:00,33.3,24.9,30.02,NNE,31,10.0,13.0,71,0.00,,,0.00,Wunderground v.1.15,2013-03-25 17:05:00,
2013-03-25 12:11:00,33.4,24.7,30.02,NNE,28,11.0,11.0,70,0.00,,,0.00,Wunderground v.1.15,2013-03-25 17:11:00,
2013-03-25 12:17:00,33.6,25.2,30.01,NE,36,11.0,13.0,71,0.00,,,0.00,Wunderground v.1.15,2013-03-25 17:17:00,
2013-03-25 12:22:00,33.6,24.9,30.02,NW,324,10.0,10.0,70,0.00,,,0.00,Wunderground v.1.15,2013-03-25 17:22:00,
2013-03-25 12:27:00,34.0,25.6,30.02,NE,45,8.0,14.0,71,0.00,,,0.00,Wunderground v.1.15,2013-03-25 17:27:00,
2013-03-25 12:32:00,33.7,24.6,30.02,NE,46,11.0,21.0,69,0.00,,,0.00,Wunderground v.1.15,2013-03-25 17:32:00,
2013-03-25 12:37:00,33.7,24.6,30.01,NE,45,13.0,21.0,69,0.00,,,0.00,Wunderground v.1.15,2013-03-25 17:37:00,
2013-03-25 12:43:00,33.9,24.8,30.02,NE,38,11.0,21.0,69,0.00,,,0.00,Wunderground v.1.15,2013-03-25 17:43:00,
2013-03-25 12:49:00,34.0,24.5,30.02,NE,38,11.0,21.0,68,0.00,,,0.00,Wunderground v.1.15,2013-03-25 17:49:00,
2013-03-25 12:55:00,34.4,24.6,30.02,NE,42,10.0,21.0,67,0.00,,,0.00,Wunderground v.1.15,2013-03-25 17:55:00,
2013-03-25 13:00:00,34.6,24.4,30.02,NNE,27,11.0,16.0,66,0.00,,,0.00,Wunderground v.1.15,2013-03-25 18:00:00,
2013-03-25 13:06:00,34.1,23.9,30.02,NNE,33,15.0,20.0,66,0.00,,,0.00,Wunderground v.1.15,2013-03-25 18:06:00,
2013-03-25 13:12:00,34.9,24.3,30.02,ENE,62,13.0,15.0,65,0.00,,,0.00,Wunderground v.1.15,2013-03-25 18:12:00,
2013-03-25 13:17:00,35.4,24.8,30.01,NE,41,12.0,16.0,65,0.00,,,0.00,Wunderground v.1.15,2013-03-25 18:17:00,
2013-03-25 13:23:00,35.3,24.3,30.01,NE,48,14.0,18.0,64,0.00,,,0.00,Wunderground v.1.15,2013-03-25 18:23:00,
2013-03-25 13:29:00,35.9,24.5,30.01,NE,46,14.0,20.0,63,0.00,,,0.00,Wunderground v.1.15,2013-03-25 18:29:00,
2013-03-25 13:35:00,36.0,24.6,30.01,NE,45,12.0,19.0,63,0.00,,,0.00,Wunderground v.1.15,2013-03-25 18:35:00,
2013-03-25 13:41:00,36.1,24.7,30.01,NNE,15,10.0,19.0,63,0.00,,,0.00,Wunderground v.1.15,2013-03-25 18:41:00,
2013-03-25 13:47:00,36.4,24.6,30.01,NNE,17,9.0,19.0,62,0.00,,,0.00,Wunderground v.1.15,2013-03-25 18:47:00,
2013-03-25 13:52:00,37.0,24.4,30.00,North,355,10.0,19.0,60,0.00,,,0.00,Wunderground v.1.15,2013-03-25 18:52:00,
2013-03-25 13:58:00,36.7,24.5,30.00,NNE,22,10.0,19.0,61,0.00,,,0.00,Wunderground v.1.15,2013-03-25 18:58:00,
2013-03-25 14:04:00,36.4,24.2,30.01,NE,47,11.0,16.0,61,0.00,,,0.00,Wunderground v.1.15,2013-03-25 19:04:00,
2013-03-25 14:10:00,36.5,24.3,30.01,NNW,340,9.0,9.0,61,0.00,,,0.00,Wunderground v.1.15,2013-03-25 19:10:00,
2013-03-25 14:16:00,36.8,24.2,30.01,North,5,8.0,11.0,60,0.00,,,0.00,Wunderground v.1.15,2013-03-25 19:16:00,
2013-03-25 14:21:00,36.9,25.1,30.01,NW,319,7.0,7.0,62,0.00,,,0.00,Wunderground v.1.15,2013-03-25 19:21:00,
2013-03-25 14:26:00,37.0,24.4,30.01,NNE,32,7.0,16.0,60,0.00,,,0.00,Wunderground v.1.15,2013-03-25 19:26:00,
2013-03-25 14:32:00,36.8,23.8,30.01,NNE,17,9.0,23.0,59,0.00,,,0.00,Wunderground v.1.15,2013-03-25 19:32:00,
2013-03-25 14:38:00,36.8,24.6,30.01,North,5,9.0,23.0,61,0.00,,,0.00,Wunderground v.1.15,2013-03-25 19:38:00,
2013-03-25 14:43:00,37.1,23.7,30.01,NE,42,8.0,23.0,58,0.00,,,0.00,Wunderground v.1.15,2013-03-25 19:43:00,
2013-03-25 14:49:00,37.1,23.7,30.01,NE,37,7.0,23.0,58,0.00,,,0.00,Wunderground v.1.15,2013-03-25 19:49:00,
2013-03-25 14:54:00,37.5,23.2,30.01,NNE,17,8.0,23.0,56,0.00,,,0.00,Wunderground v.1.15,2013-03-25 19:54:00,
2013-03-25 15:00:00,37.2,23.4,30.01,North,355,8.0,8.0,57,0.00,,,0.00,Wunderground v.1.15,2013-03-25 20:00:00,
2013-03-25 15:06:00,37.6,23.7,30.01,North,5,8.0,11.0,57,0.00,,,0.00,Wunderground v.1.15,2013-03-25 20:06:00,
2013-03-25 15:12:00,37.5,23.6,30.01,NNE,27,7.0,7.0,57,0.00,,,0.00,Wunderground v.1.15,2013-03-25 20:12:00,
2013-03-25 15:18:00,37.4,23.1,30.01,NNE,25,7.0,13.0,56,0.00,,,0.00,Wunderground v.1.15,2013-03-25 20:18:00,
2013-03-25 15:24:00,37.5,23.6,30.01,North,351,8.0,14.0,57,0.00,,,0.00,Wunderground v.1.15,2013-03-25 20:24:00,
2013-03-25 15:30:00,37.2,23.8,30.01,North,360,9.0,9.0,58,0.00,,,0.00,Wunderground v.1.15,2013-03-25 20:30:00,
2013-03-25 15:36:00,37.0,23.6,30.01,NNW,331,8.0,16.0,58,0.00,,,0.00,Wunderground v.1.15,2013-03-25 20:36:00,
2013-03-25 15:42:00,37.1,23.3,30.02,North,5,8.0,16.0,57,0.00,,,0.00,Wunderground v.1.15,2013-03-25 20:42:00,
2013-03-25 15:48:00,37.1,23.7,30.02,NE,52,7.0,16.0,58,0.00,,,0.00,Wunderground v.1.15,2013-03-25 20:48:00,
2013-03-25 15:54:00,37.0,23.2,30.02,NNE,32,9.0,16.0,57,0.00,,,0.00,Wunderground v.1.15,2013-03-25 20:54:00,
2013-03-25 15:59:00,37.3,22.6,30.02,NNE,22,8.0,16.0,55,0.00,,,0.00,Wunderground v.1.15,2013-03-25 20:59:00,
2013-03-25 16:04:00,37.7,22.5,30.02,North,355,7.0,10.0,54,0.00,,,0.00,Wunderground v.1.15,2013-03-25 21:04:00,
2013-03-25 16:10:00,37.3,23.0,30.02,North,360,10.0,11.0,56,0.00,,,0.00,Wunderground v.1.15,2013-03-25 21:10:00,
2013-03-25 16:16:00,37.4,21.8,30.02,North,355,9.0,12.0,53,0.00,,,0.00,Wunderground v.1.15,2013-03-25 21:16:00,
2013-03-25 16:22:00,37.5,22.8,30.02,NE,38,8.0,10.0,55,0.00,,,0.00,Wunderground v.1.15,2013-03-25 21:22:00,
2013-03-25 16:28:00,37.3,22.2,30.02,NNW,336,9.0,15.0,54,0.00,,,0.00,Wunderground v.1.15,2013-03-25 21:28:00,
2013-03-25 16:33:00,37.2,23.4,30.02,North,5,9.0,16.0,57,0.00,,,0.00,Wunderground v.1.15,2013-03-25 21:33:00,
2013-03-25 16:38:00,37.1,22.0,30.02,NNE,28,9.0,16.0,54,0.00,,,0.00,Wunderground v.1.15,2013-03-25 21:38:00,
2013-03-25 16:44:00,36.8,22.6,30.02,NNE,28,11.0,16.0,56,0.00,,,0.00,Wunderground v.1.15,2013-03-25 21:44:00,
2013-03-25 16:49:00,37.5,22.3,30.02,NNE,22,9.0,16.0,54,0.00,,,0.00,Wunderground v.1.15,2013-03-25 21:49:00,
2013-03-25 16:55:00,38.1,22.0,30.03,NNW,348,8.0,16.0,52,0.00,,,0.00,Wunderground v.1.15,2013-03-25 21:55:00,
2013-03-25 17:00:00,37.5,21.5,30.03,NNE,32,8.0,8.0,52,0.00,,,0.00,Wunderground v.1.15,2013-03-25 22:00:00,
2013-03-25 17:05:00,37.4,22.7,30.03,North,350,7.0,8.0,55,0.00,,,0.00,Wunderground v.1.15,2013-03-25 22:05:00,
2013-03-25 17:11:00,37.1,22.4,30.03,North,11,8.0,10.0,55,0.00,,,0.00,Wunderground v.1.15,2013-03-25 22:11:00,
2013-03-25 17:17:00,36.6,22.4,30.03,North,350,10.0,10.0,56,0.00,,,0.00,Wunderground v.1.15,2013-03-25 22:17:00,
2013-03-25 17:22:00,36.4,22.2,30.04,NE,48,10.0,14.0,56,0.00,,,0.00,Wunderground v.1.15,2013-03-25 22:22:00,
2013-03-25 17:28:00,36.2,22.4,30.04,North,10,10.0,14.0,57,0.00,,,0.00,Wunderground v.1.15,2013-03-25 22:28:00,
2013-03-25 17:34:00,36.0,23.4,30.04,North,5,9.0,19.0,60,0.00,,,0.00,Wunderground v.1.15,2013-03-25 22:34:00,
2013-03-25 17:39:00,35.7,23.2,30.04,NNW,340,9.0,19.0,60,0.00,,,0.00,Wunderground v.1.15,2013-03-25 22:39:00,
2013-03-25 17:45:00,35.5,23.4,30.05,North,355,9.0,19.0,61,0.00,,,0.00,Wunderground v.1.15,2013-03-25 22:45:00,
2013-03-25 17:51:00,35.1,23.4,30.05,North,355,9.0,19.0,62,0.00,,,0.00,Wunderground v.1.15,2013-03-25 22:51:00,
2013-03-25 17:57:00,34.8,23.1,30.05,NNE,17,9.0,19.0,62,0.00,,,0.00,Wunderground v.1.15,2013-03-25 22:57:00,
2013-03-25 18:03:00,34.5,23.6,30.06,NNW,329,9.0,11.0,64,0.00,,,0.00,Wunderground v.1.15,2013-03-25 23:03:00,
2013-03-25 18:08:00,34.3,23.0,30.06,NNE,27,9.0,14.0,63,0.00,,,0.00,Wunderground v.1.15,2013-03-25 23:08:00,
2013-03-25 18:14:00,34.1,22.4,30.07,NNE,15,10.0,13.0,62,0.00,,,0.00,Wunderground v.1.15,2013-03-25 23:14:00,
2013-03-25 18:20:00,34.0,23.1,30.07,North,5,9.0,9.0,64,0.00,,,0.00,Wunderground v.1.15,2013-03-25 23:20:00,
2013-03-25 18:25:00,33.8,22.9,30.08,NNE,20,9.0,14.0,64,0.00,,,0.00,Wunderground v.1.15,2013-03-25 23:25:00,
2013-03-25 18:30:00,33.6,23.4,30.08,NNE,19,7.0,11.0,66,0.00,,,0.00,Wunderground v.1.15,2013-03-25 23:30:00,
2013-03-25 18:36:00,33.4,22.5,30.08,North,355,8.0,19.0,64,0.00,,,0.00,Wunderground v.1.15,2013-03-25 23:36:00,
2013-03-25 18:42:00,33.1,23.3,30.08,NNW,338,8.0,19.0,67,0.00,,,0.00,Wunderground v.1.15,2013-03-25 23:42:00,
2013-03-25 18:48:00,32.9,22.8,30.09,NNE,12,8.0,19.0,66,0.00,,,0.00,Wunderground v.1.15,2013-03-25 23:48:00,
2013-03-25 18:53:00,32.8,22.7,30.09,North,5,8.0,19.0,66,0.00,,,0.00,Wunderground v.1.15,2013-03-25 23:53:00,
2013-03-25 18:58:00,32.7,22.6,30.09,North,9,8.0,19.0,66,0.00,,,0.00,Wunderground v.1.15,2013-03-25 23:58:00,
2013-03-25 19:04:00,32.5,22.8,30.09,ENE,63,8.0,9.0,67,0.00,,,0.00,Wunderground v.1.15,2013-03-26 00:04:00,
2013-03-25 19:10:00,32.5,22.8,30.09,North,5,8.0,8.0,67,0.00,,,0.00,Wunderground v.1.15,2013-03-26 00:10:00,
2013-03-25 19:16:00,32.5,22.8,30.09,North,355,7.0,8.0,67,0.00,,,0.00,Wunderground v.1.15,2013-03-26 00:16:00,
2013-03-25 19:22:00,32.4,23.0,30.10,NNW,340,7.0,9.0,68,0.00,,,0.00,Wunderground v.1.15,2013-03-26 00:22:00,
2013-03-25 19:28:00,32.3,23.3,30.10,North,351,6.0,9.0,69,0.00,,,0.00,Wunderground v.1.15,2013-03-26 00:28:00,
2013-03-25 19:33:00,32.1,23.4,30.10,NNW,345,5.0,17.0,70,0.00,,,0.00,Wunderground v.1.15,2013-03-26 00:33:00,
2013-03-25 19:39:00,32.0,23.3,30.10,NNE,17,7.0,17.0,70,0.00,,,0.00,Wunderground v.1.15,2013-03-26 00:39:00,
2013-03-25 19:45:00,31.9,23.6,30.10,North,5,8.0,17.0,71,0.00,,,0.00,Wunderground v.1.15,2013-03-26 00:45:00,
2013-03-25 19:51:00,31.8,23.1,30.11,NNE,16,8.0,17.0,70,0.00,,,0.00,Wunderground v.1.15,2013-03-26 00:51:00,
2013-03-25 19:57:00,31.7,23.4,30.11,North,360,6.0,17.0,71,0.00,,,0.00,Wunderground v.1.15,2013-03-26 00:57:00,
2013-03-25 20:02:00,31.8,23.1,30.11,NNE,19,6.0,9.0,70,0.00,,,0.00,Wunderground v.1.15,2013-03-26 01:02:00,
2013-03-25 20:08:00,31.8,23.1,30.11,North,360,6.0,9.0,70,0.00,,,0.00,Wunderground v.1.15,2013-03-26 01:08:00,
2013-03-25 20:14:00,31.7,23.0,30.11,North,5,6.0,8.0,70,0.00,,,0.00,Wunderground v.1.15,2013-03-26 01:14:00,
2013-03-25 20:19:00,31.7,23.4,30.11,NNE,21,5.0,8.0,71,0.00,,,0.00,Wunderground v.1.15,2013-03-26 01:19:00,
2013-03-25 20:24:00,31.6,23.6,30.12,NNW,347,3.0,4.0,72,0.00,,,0.00,Wunderground v.1.15,2013-03-26 01:24:00,
2013-03-25 20:30:00,31.5,23.5,30.12,North,10,4.0,7.0,72,0.00,,,0.00,Wunderground v.1.15,2013-03-26 01:30:00,
2013-03-25 20:36:00,31.5,23.8,30.12,North,5,5.0,13.0,73,0.00,,,0.00,Wunderground v.1.15,2013-03-26 01:36:00,
2013-03-25 20:41:00,31.4,23.1,30.12,NNE,16,6.0,13.0,71,0.00,,,0.00,Wunderground v.1.15,2013-03-26 01:41:00,
2013-03-25 20:46:00,31.3,22.3,30.12,NNW,340,7.0,13.0,69,0.00,,,0.00,Wunderground v.1.15,2013-03-26 01:46:00,
2013-03-25 20:52:00,31.1,21.4,30.13,North,355,8.0,13.0,67,0.00,,,0.00,Wunderground v.1.15,2013-03-26 01:52:00,
2013-03-25 20:58:00,31.0,21.0,30.13,NNE,13,8.0,13.0,66,0.00,,,0.00,Wunderground v.1.15,2013-03-26 01:58:00,
2013-03-25 21:03:00,30.9,21.2,30.13,NNE,26,10.0,16.0,67,0.00,,,0.00,Wunderground v.1.15,2013-03-26 02:03:00,
2013-03-25 21:09:00,30.8,20.8,30.13,North,11,11.0,16.0,66,0.00,,,0.00,Wunderground v.1.15,2013-03-26 02:09:00,
2013-03-25 21:15:00,30.7,20.7,30.13,NNE,26,10.0,16.0,66,0.00,,,0.00,Wunderground v.1.15,2013-03-26 02:15:00,
2013-03-25 21:21:00,30.7,21.0,30.13,NE,39,11.0,11.0,67,0.00,,,0.00,Wunderground v.1.15,2013-03-26 02:21:00,
2013-03-25 21:26:00,30.6,20.9,30.13,NE,37,10.0,11.0,67,0.00,,,0.00,Wunderground v.1.15,2013-03-26 02:26:00,
2013-03-25 21:32:00,30.6,21.3,30.14,NNE,12,8.0,12.0,68,0.00,,,0.00,Wunderground v.1.15,2013-03-26 02:32:00,
2013-03-25 21:38:00,30.6,20.9,30.14,NNE,29,8.0,12.0,67,0.00,,,0.00,Wunderground v.1.15,2013-03-26 02:38:00,
2013-03-25 21:44:00,30.6,20.9,30.14,NE,51,9.0,12.0,67,0.00,,,0.00,Wunderground v.1.15,2013-03-26 02:44:00,
2013-03-25 21:50:00,30.5,20.8,30.14,NE,43,8.0,12.0,67,0.00,,,0.00,Wunderground v.1.15,2013-03-26 02:50:00,
2013-03-25 21:55:00,30.5,20.8,30.14,NNE,15,8.0,12.0,67,0.00,,,0.00,Wunderground v.1.15,2013-03-26 02:55:00,
2013-03-25 22:00:00,30.4,21.4,30.14,North,350,6.0,6.0,69,0.00,,,0.00,Wunderground v.1.15,2013-03-26 03:00:00,
2013-03-25 22:06:00,30.4,21.1,30.14,NE,34,5.0,8.0,68,0.00,,,0.00,Wunderground v.1.15,2013-03-26 03:06:00,
2013-03-25 22:11:00,30.3,21.0,30.14,NNE,24,6.0,7.0,68,0.00,,,0.00,Wunderground v.1.15,2013-03-26 03:11:00,
2013-03-25 22:16:00,30.2,21.2,30.14,NE,36,6.0,7.0,69,0.00,,,0.00,Wunderground v.1.15,2013-03-26 03:16:00,
2013-03-25 22:21:00,30.2,20.9,30.14,NNE,22,6.0,6.0,68,0.00,,,0.00,Wunderground v.1.15,2013-03-26 03:21:00,
2013-03-25 22:27:00,30.1,21.2,30.15,North,5,5.0,6.0,69,0.00,,,0.00,Wunderground v.1.15,2013-03-26 03:27:00,
2013-03-25 22:33:00,30.0,21.4,30.15,NNE,33,4.0,7.0,70,0.00,,,0.00,Wunderground v.1.15,2013-03-26 03:33:00,
2013-03-25 22:39:00,29.9,21.0,30.15,NNE,21,6.0,23.0,69,0.00,,,0.00,Wunderground v.1.15,2013-03-26 03:39:00,
2013-03-25 22:44:00,29.8,20.5,30.15,NE,39,9.0,23.0,68,0.00,,,0.00,Wunderground v.1.15,2013-03-26 03:44:00,
2013-03-25 22:50:00,29.7,20.8,30.15,NNE,28,10.0,23.0,69,0.00,,,0.00,Wunderground v.1.15,2013-03-26 03:50:00,
2013-03-25 22:56:00,29.6,20.7,30.15,North,355,10.0,23.0,69,0.00,,,0.00,Wunderground v.1.15,2013-03-26 03:56:00,
2013-03-25 23:00:00,29.6,20.3,30.15,NNE,30,10.0,10.0,68,0.00,,,0.00,Wunderground v.1.15,2013-03-26 04:00:00,
2013-03-25 23:01:00,29.6,20.3,30.15,NNE,32,10.0,10.0,68,0.00,,,0.00,Wunderground v.1.15,2013-03-26 04:01:00,
2013-03-25 23:02:00,29.5,20.6,30.15,ENE,59,10.0,10.0,69,0.00,,,0.00,Wunderground v.1.15,2013-03-26 04:02:00,
2013-03-25 23:03:00,29.5,20.2,30.15,NNE,30,9.0,10.0,68,0.00,,,0.00,Wunderground v.1.15,2013-03-26 04:03:00,
2013-03-25 23:09:00,29.4,20.5,30.15,NE,39,9.0,15.0,69,0.00,,,0.00,Wunderground v.1.15,2013-03-26 04:09:00,
2013-03-25 23:15:00,29.2,20.3,30.15,NNE,26,9.0,11.0,69,0.00,,,0.00,Wunderground v.1.15,2013-03-26 04:15:00,
2013-03-25 23:21:00,29.0,20.1,30.15,NNE,20,7.0,8.0,69,0.00,,,0.00,Wunderground v.1.15,2013-03-26 04:21:00,
2013-03-25 23:27:00,29.0,20.1,30.16,NNW,348,6.0,8.0,69,0.00,,,0.00,Wunderground v.1.15,2013-03-26 04:27:00,
2013-03-25 23:32:00,28.9,20.3,30.16,NNE,30,7.0,11.0,70,0.00,,,0.00,Wunderground v.1.15,2013-03-26 04:32:00,
2013-03-25 23:38:00,28.7,20.1,30.16,NE,40,8.0,13.0,70,0.00,,,0.00,Wunderground v.1.15,2013-03-26 04:38:00,
2013-03-25 23:44:00,28.5,20.0,30.16,NE,48,8.0,11.0,70,0.00,,,0.00,Wunderground v.1.15,2013-03-26 04:44:00,
2013-03-25 23:49:00,28.4,20.2,30.16,NNE,23,9.0,13.0,71,0.00,,,0.00,Wunderground v.1.15,2013-03-26 04:49:00,
2013-03-25 23:54:00,28.2,20.0,30.16,NE,42,9.0,11.0,71,0.00,,,0.00,Wunderground v.1.15,2013-03-26 04:54:00,